TimeCAT,TemperatureF,Dew PointF,Humidity,Sea Level PressureIn,VisibilityMPH,Wind Direction,Wind SpeedMPH,Gust SpeedMPH,PrecipitationIn,Events,Conditions,WindDirDegrees,DateUTC
12:00 AM,68.0,68.0,100,30.18,6.2,SE,4.6,-,N/A,,Scattered Clouds,130,2013-03-04 22:00:00
1:00 AM,66.2,66.2,100,30.15,6.2,SE,4.6,-,N/A,,Scattered Clouds,140,2013-03-04 23:00:00
5:00 AM,64.4,64.4,100,30.15,-9999.0,SE,4.6,-,N/A,,Clear,130,2013-03-05 03:00:00
6:00 AM,66.2,66.2,100,30.15,6.2,SE,4.6,-,N/A,,Scattered Clouds,130,2013-03-05 04:00:00
7:00 AM,66.2,66.2,100,30.18,6.2,East,4.6,-,N/A,,Scattered Clouds,100,2013-03-05 05:00:00
8:00 AM,66,,,,19,East,11.5,,,,Mostly Cloudy,90,2013-03-05 06:00:00
8:00 AM,69.8,66.2,88,30.21,6.2,East,11.5,-,N/A,,Partly Cloudy,90,2013-03-05 06:00:00
9:00 AM,71.6,69.8,94,30.21,6.2,East,9.2,-,N/A,,Mostly Cloudy,80,2013-03-05 07:00:00
10:00 AM,73.4,68.0,83,30.21,6.2,East,8.1,-,N/A,,Mostly Cloudy,80,2013-03-05 08:00:00
11:00 AM,77.0,69.8,78,30.18,6.2,East,10.4,-,N/A,,Mostly Cloudy,80,2013-03-05 09:00:00
12:00 PM,77.0,71.6,83,30.15,6.2,ENE,10.4,-,N/A,,Mostly Cloudy,70,2013-03-05 10:00:00
1:00 PM,78.8,69.8,74,30.12,6.2,ENE,6.9,-,N/A,,Mostly Cloudy,70,2013-03-05 11:00:00
2:00 PM,82,71,61,,19,East,8.1,,,,Mostly Cloudy,80,2013-03-05 12:00:00
2:00 PM,82.4,73.4,74,30.12,6.2,East,8.1,-,N/A,,Partly Cloudy,80,2013-03-05 12:00:00
3:00 PM,82.4,68.0,62,30.09,6.2,East,8.1,-,N/A,,Partly Cloudy,80,2013-03-05 13:00:00
4:00 PM,82.4,71.6,70,30.09,6.2,ESE,8.1,-,N/A,,Partly Cloudy,120,2013-03-05 14:00:00
5:00 PM,82.4,71.6,70,30.06,6.2,SE,5.8,-,N/A,,Partly Cloudy,130,2013-03-05 15:00:00
6:00 PM,78.8,71.6,78,30.06,6.2,East,8.1,-,N/A,,Partly Cloudy,90,2013-03-05 16:00:00
7:00 PM,75.2,73.4,94,30.09,6.2,East,3.5,-,N/A,,Scattered Clouds,80,2013-03-05 17:00:00
8:00 PM,73,72,95,,19,ESE,9.2,,,,Scattered Clouds,120,2013-03-05 18:00:00
8:00 PM,73.4,71.6,94,30.12,6.2,ESE,9.2,-,N/A,,Scattered Clouds,120,2013-03-05 18:00:00